Content
SEND FEEDBACK

Daily
Averages
Monthly
Summary
United States of America

CHICAGO, ILLINOIS


Home > North America > United States > Illinois
Elevation: 674 feet     Latitude: 41 59N     Longitude: 087 54W

WEATHER
 
SELECT A DAY
Number of Records: 197,818;   Date Range: 7/8/95 - 10/20/14
 
SHARE

PRINT THIS DATA

[ ← Previous Day ]
WEATHER ALMANAC - MARCH 31, 2013
[ Next Day → ]
[ °C ]   °F
Weather ElementAverageHighLow
Temperature46.6 °F57 °F (2:52 pm)37 °F (11:52 pm)
Dewpoint35.6 °F43 °F (2:52 am)23 °F (11:52 pm)
Humidity67.8 %87 % (2:23 am)33 % (3:52 pm)
Barometer29.79 in29.91 in (11:52 pm)29.71 in (2:52 pm)
Wind Speed11.6 mph20.7 mph (3:52 pm)
Wind Gust31.1 mph (4:52 pm)
Weather ElementAverage
Visibility7.6 mi
Wind DirectionWNW (278.7 °)

Weather ElementTotal
Precipitation---
Heating Degree Days18 (Base 65)
Averaged from 31 records on March 31, 2013
WEATHER CONDITIONS BREAKOUT
WIND DIRECTION BREAKOUT
WEATHER BY HOUR - MARCH 31, 2013
[ °C ]   °F
Local TimeTemperatureDewpointHumidityBarometerVisibilityWind DirectionWind SpeedGust SpeedPrecipitationEventsConditions
1:48 AM48.2 °F42.8 °F82 %29.81 in6.0 miWSW (240°)9.2 mphHaze
1:52 AM48.0 °F42.1 °F80 %29.82 in6.0 miWSW (240°)8.1 mphHaze
2:23 AM46.4 °F42.8 °F87 %29.80 in5.0 miWSW (240°)6.9 mphHaze
2:52 AM46.9 °F43.0 °F86 %29.80 in3.0 miWSW (250°)6.9 mphOvercast
3:20 AM46.4 °F42.8 °F87 %29.79 in5.0 miWest (280°)8.1 mphOvercast
3:52 AM46.0 °F42.1 °F86 %29.79 in5.0 miWest (280°)6.9 mphOvercast
4:08 AM46.4 °F42.8 °F87 %29.78 in6.0 miWest (280°)6.9 mphOvercast
4:19 AM46.4 °F42.8 °F87 %29.78 in6.0 miWNW (290°)9.2 mphOvercast
4:52 AM46.0 °F41.0 °F83 %29.78 in6.0 miWest (280°)6.9 mphHaze
5:49 AM44.6 °F39.2 °F81 %29.78 in8.0 miWest (280°)5.8 mphPartly Cloudy
5:52 AM45.0 °F39.0 °F80 %29.78 in8.0 miWNW (290°)9.2 mphScattered Clouds
6:52 AM43.0 °F37.9 °F82 %29.79 in6.0 miWNW (300°)9.2 mphHaze
7:33 AM42.8 °F37.4 °F81 %29.79 in6.0 miWNW (300°)8.1 mphHaze
7:52 AM42.1 °F36.0 °F79 %29.80 in6.0 miWNW (290°)11.5 mphHaze
8:52 AM43.0 °F37.0 °F80 %29.80 in6.0 miWSW (250°)6.9 mphHaze
9:52 AM44.1 °F37.0 °F76 %29.80 in5.0 miWest (260°)10.4 mphHaze
10:33 AM46.4 °F37.4 °F71 %29.78 in6.0 miWest (260°)10.4 mph18.4 mphHaze
10:52 AM48.9 °F37.9 °F66 %29.78 in7.0 miWest (260°)11.5 mph16.1 mphClear
11:52 AM53.1 °F37.0 °F55 %29.77 in10.0 miWest (280°)13.8 mph20.7 mphClear
12:52 PM55.9 °F36.0 °F47 %29.74 in10.0 miWest (280°)19.6 mph23.0 mphScattered Clouds
1:52 PM55.9 °F35.1 °F45 %29.73 in10.0 miWest (280°)12.7 mph24.2 mphMostly Cloudy
2:52 PM57.0 °F34.0 °F42 %29.71 in10.0 miWest (260°)18.4 mph28.8 mphMostly Cloudy
3:52 PM57.0 °F28.0 °F33 %29.72 in10.0 miWest (270°)20.7 mph28.8 mphMostly Cloudy
4:52 PM53.1 °F28.0 °F38 %29.74 in10.0 miWNW (300°)20.7 mph31.1 mphClear
5:52 PM46.9 °F30.0 °F52 %29.78 in10.0 miWNW (300°)18.4 mph27.6 mphPartly Cloudy
6:52 PM46.0 °F28.0 °F50 %29.80 in10.0 miWNW (290°)12.7 mphPartly Cloudy
7:52 PM42.1 °F26.1 °F53 %29.83 in10.0 miWNW (300°)15.0 mphScattered Clouds
8:52 PM41.0 °F26.1 °F55 %29.86 in10.0 miWNW (290°)12.7 mphClear
9:52 PM39.9 °F26.1 °F58 %29.88 in10.0 miWNW (290°)16.1 mph21.9 mphMostly Cloudy
10:52 PM39.0 °F25.0 °F57 %29.89 in10.0 miNW (310°)13.8 mph0.00 inScattered Clouds
11:52 PM37.0 °F23.0 °F57 %29.91 in10.0 miNW (320°)11.5 mphPartly Cloudy
Hourly data recorded from KPWK, located miles away from Chicago, Illinois







STORIES FROM OUR PARTNERS